Flag for U.S.A. Weather past 2 weeks in Loma Linda, California, U.S.A.

Now
53 °F

Clear.


Feels Like: 53 °F
Forecast: 56 / 85 °F
Wind: 2 mph from West

Location: Riverside / March Air Force Base


UV Index: 7 (High)

Visibility: 10 mi


Pressure: 30.01 "Hg

Humidity: 84%

Dew point: 48 °F

Location of Loma LindaLocation

Historic Weather in Loma Linda

°F

Loma Linda temperature yesterday

Maximum temperature yesterday: 84 °F (at 2:58 PM)
Minimum temperature yesterday: 49 °F (at 5:58 AM)
Average temperature yesterday: 66 °F

Past Weeks' High & Low Weather Summary

 TemperatureHumidityPressure
High91 °F (Apr 9, 3:58 PM)96% (Apr 17, 6:58 AM)30.13 "Hg (Apr 17, 6:58 AM)
Low39 °F (Apr 6, 5:58 AM)5% (Apr 9, 12:58 PM)29.75 "Hg (Apr 16, 3:58 PM)
Average64 °F49%29.95 "Hg
* Reported Apr 6 5:58 AM — Apr 21 5:58 AM, Loma Linda, Weather by CustomWeather, © 2014

Note: Actual official high and low records may vary slightly from our data, if they occured in-between our weather recording intervals... More about our weather records

Advertising

Historic Weather Conditions — Data for Previous 24 hours

 ConditionsComfort  
Time TempWeatherWind HumidityBarometerVisibility
5:58 AM
Apr 21
53 °FClear.2 mph84%30.01 "Hg10 mi
4:58 AM52 °FClear.No wind83%30.00 "Hg10 mi
3:58 AM53 °FClear.No wind80%30.01 "Hg10 mi
2:58 AM55 °FClear.3 mph79%30.01 "Hg10 mi
1:58 AM58 °FClear.3 mph73%30.02 "Hg10 mi
12:58 AM58 °FClear.2 mph71%30.04 "Hg10 mi
11:58 PM
Apr 20
59 °FClear.No wind72%30.04 "Hg10 mi
10:58 PM64 °FClear.3 mph67%30.04 "Hg10 mi
9:58 PM64 °FClear.2 mph64%30.04 "Hg10 mi
8:58 PM67 °FClear.6 mph61%30.03 "Hg10 mi
7:58 PM70 °FSunny.7 mph55%30.01 "Hg10 mi
6:58 PM75 °FSunny.8 mph42%30.00 "Hg10 mi
5:58 PM78 °FSunny.15 mph36%29.99 "Hg10 mi
4:58 PM82 °FSunny.14 mph32%29.97 "Hg10 mi
3:58 PM84 °FSunny.13 mph33%29.97 "Hg10 mi
2:58 PM84 °FSunny.15 mph31%29.98 "Hg10 mi
1:58 PM83 °FPassing clouds.12 mph27%30.00 "Hg10 mi
12:58 PM80 °FSunny.9 mph34%30.01 "Hg10 mi
11:58 AM77 °FPassing clouds.9 mph42%30.02 "Hg10 mi
10:58 AM75 °FPassing clouds.3 mph42%30.03 "Hg10 mi
9:58 AM70 °FPassing clouds.2 mph51%30.04 "Hg10 mi
8:58 AM63 °FSunny.1 mph69%30.04 "Hg10 mi
7:58 AM58 °FSunny.1 mph77%30.05 "Hg10 mi
6:58 AM51 °FClear.No wind83%30.04 "Hg10 mi
Weather by CustomWeather, © 2014

See weather overview